Weather in Klyazma

Russia / Moscow Oblast     55°58′41″N   37°50′01″E
В апреле 2022 года жителям России запретили посещать сайт meteo.paraplan.net по решению Генеральной прокуратуры. Аудитория сайта уменьшилась в 10 раз. Владельцы сайта не видят смысла в поддержке погодного сервера в таких условиях. Сайт будет закрыт в октябре.
temp.,
°C
wind,
m/s
gust,
m/s
humid.,
%
clouds,
%
prec.,
mm/h
press.,
hPa
HPBL,
m
30 september, fri
fri3000:00+8sse3693100 0.0 1014119
03:00+8sse3892100 0.0 1014183
06:00+8sse3995100 0.0 1015222
09:00+10sse41081100 0.0 1015325
12:00+14s4872100 0.0 1015609
15:00+16s477596 0.2 1014925
18:00+14s488869 0.2 1015362
21:00+12ssw379667 0.4 1016276
1 october, sat
sat100:00+12ssw1297100 0.3 101686
03:00+12nne1396100 0.3 1017111
06:00+12ne2396100 0.1 1016122
09:00+12ene1297100 0.4 1015131
12:00+13se2394100 0.0 1014263
15:00+15se2485100 0.1 1012475
18:00+14ese3893100 0.1 1010284
21:00+13se41096100 0.4 1007298
2 october, sun
sun200:00+13ssw4109385 1.0 1005570
03:00+11sw71084100 1.6 1005991
06:00+9sw61188100 0.2 1005894
09:00+9wsw61189100 0.2 1006722
12:00+9wsw5988100 0.0 1008737
15:00+10wsw4685100 0.1 1008764
18:00+9wsw2487100 0.0 1008292
21:00+8nne1193100 0.0 100723
3 october, mon
mon300:00+8ne3793100 0.0 1005290
03:00+8ne51294100 5.0 1002561
06:00+9ene51498100 8.5 998651
09:00+12ese61498100 10.1 996717
12:00+14se61494100 3.6 9941105
15:00+13se81494100 6.4 993920
18:00+10s61091100 0.2 996928
21:00+8ssw61087100 0.4 10001174
4 october, tue
tue400:00+7ssw6987100 0.3 10021315
03:00+6ssw61090100 2.1 10041204
06:00+7ssw5108697 0.3 1006878
09:00+8s511845 0.3 1009690
12:00+11ssw6117263 0.1 10101212
15:00+12ssw6107242 0.6 10111251
18:00+10s5108195 0.7 1013658
21:00+10s5108692 1.2 1014655